Погода в Лонгриче

Австралия     23°26′26″S   144°15′34″E
темп.,
°C
ветер,
м/с
пор.,
м/с
влажн.,
%
обл.,
%
осадки,
мм/ч
давл.,
гПа
погр.,
м
11 мая, вт
вт1101:00+21ю612400 0.0 1016261
04:00+20ю511450 0.0 1015243
07:00+18ю59500 0.0 1017172
10:00+25ююв55330 0.0 1018735
13:00+27ю43290 0.0 10151660
16:00+28ююз33270 0.0 10132036
19:00+24юз46350 0.0 101575
22:00+22ююз58380 0.0 1015116
12 мая, ср
ср1201:00+20ю611420 0.0 1015212
04:00+18ююв713490 0.0 1015299
07:00+16ююв510556 0.0 1017245
10:00+22ююв674115 0.0 1017562
13:00+27ю43290 0.0 10141476
16:00+27ююз54270 0.0 10131746
19:00+23ююз45310 0.0 101446
22:00+20ю611370 0.0 1015193
13 мая, чт
чт1301:00+18ю713430 0.0 1015278
04:00+16ююв511480 0.0 1015249
07:00+15ююв510540 0.0 1016202
10:00+22юв67380 0.0 1016579
13:00+26ююв54260 0.0 10141310
16:00+27ю55210 0.0 10121428
19:00+22ю59220 0.0 101496
22:00+18ююв612220 0.0 1016193
14 мая, пт
пт1401:00+16ююв512330 0.0 1016183
04:00+15ююв612430 0.0 1016208
07:00+13юв511490 0.0 1018179
10:00+20юв89320 0.0 1018701
13:00+25юв66200 0.0 10151269
16:00+26юв55170 0.0 10141489
19:00+21ююв57250 0.0 101570
22:00+19юв59290 0.0 1016120
15 мая, сб
сб1501:00+17юв714350 0.0 1016253
04:00+15юв713420 0.0 1016264
07:00+14юв612500 0.0 1018225
10:00+20вюв77340 0.0 1019628
13:00+24юв54260 0.0 10161275
16:00+25ю65240 0.0 10151537
19:00+20ю57290 0.0 101780
22:00+18ююв715260 0.0 1019343